WS6A-13 Weather Reports


time (UTC)temp
F
wind
direction
speed
knots
gust
knots
rain 1hr
in
rain 24hr
in
rain mn
in
humidity
%
barometer
mb
20260509123004 55 200 0.0 0.0 0.00 0.34 0.33 95 1006.4
20260509120004 55 248 0.0 0.0 0.01 0.34 0.33 95 1006.6
20260509114504 54 248 0.0 0.0 0.02 0.34 0.33 95 1006.1
20260509113003 54 248 0.0 0.0 0.04 0.34 0.33 95 1006.3
20260509111503 55 248 0.0 0.0 0.07 0.34 0.33 95 1006.5
20260509110004 54 248 0.0 0.0 0.07 0.33 0.32 95 1006.8
20260509103004 54 248 0.0 0.0 0.07 0.30 0.29 95 1006.7
20260509101503 55 248 0.0 0.0 0.06 0.27 0.26 95 1006.8
20260509100005 55 129 0.0 0.0 0.07 0.26 0.25 94 1006.8
20260509094504 55 129 0.0 0.0 0.07 0.24 0.23 94 1007.0
20260509093004 55 129 0.0 0.0 0.07 0.23 0.22 94 1007.1
20260509091505 55 129 0.0 0.0 0.06 0.21 0.20 94 1007.5
20260509090004 55 129 0.0 0.0 0.06 0.19 0.18 94 1007.7
20260509084503 55 129 0.0 0.0 0.04 0.17 0.16 94 1007.7
20260509083004 55 129 0.0 0.0 0.03 0.16 0.15 94 1007.8
20260509081504 55 129 0.0 0.0 0.03 0.15 0.14 94 1007.7
20260509080004 55 129 0.0 0.0 0.02 0.13 0.12 93 1007.5
20260509071504 55 129 0.0 0.0 0.05 0.12 0.11 93 1008.0
20260509070004 55 126 0.0 0.9 0.04 0.11 0.10 92 1008.1
20260509064504 55 193 0.0 0.0 0.04 0.10 0.09 92 1008.4
20260509063004 55 201 0.0 0.0 0.05 0.09 0.08 92 1008.4
20260509061504 55 201 0.0 0.0 0.04 0.07 0.06 92 1008.2
20260509060004 55 201 0.0 0.0 0.05 0.07 0.06 91 1008.4
20260509054504 55 201 0.0 0.0 0.04 0.06 0.05 91 1008.5
20260509051504 55 201 0.0 0.0 0.01 0.03 0.02 90 1008.7
20260509050004 55 201 0.0 0.0 0.01 0.02 0.01 90 1008.9
20260509044503 55 201 0.0 0.0 0.00 0.02 0.01 90 1008.9
20260509043004 55 201 0.0 0.0 0.00 0.02 0.01 90 1009.0
20260509041521 55 201 0.0 0.0 0.00 0.02 0.01 89 1009.1
20260509040004 55 201 0.0 0.0 0.00 0.01 0.00 89 1009.2
20260509034503 55 201 0.0 0.0 0.00 0.01 0.01 88 1009.0
20260509033004 55 201 0.0 0.0 0.00 0.01 0.01 88 1009.2
20260509031504 56 201 0.0 0.0 0.00 0.01 0.01 87 1009.2
20260509030004 56 201 0.0 0.0 0.00 0.01 0.01 87 1009.2
20260509023004 56 201 0.0 0.0 0.00 0.01 0.01 87 1009.2
20260509021503 56 201 0.0 0.0 0.01 0.01 0.01 86 1009.4
20260509013004 57 201 0.0 0.0 0.01 0.01 0.01 85 1008.9
20260509011504 57 201 0.0 0.0 0.00 0.00 0.00 86 1009.0
20260509004504 57 202 0.0 0.0 0.00 0.00 0.00 83 1008.4
20260509003004 57 202 0.0 0.0 0.00 0.00 0.00 85 1008.3
20260509001504 58 201 0.0 0.0 0.00 0.00 0.00 84 1008.3
20260508234503 59 201 0.0 0.0 0.00 0.00 0.00 81 1008.6
20260508233004 60 202 0.0 0.0 0.00 0.00 0.00 78 1008.5
20260508231503 61 202 0.0 0.0 0.00 0.00 0.00 75 1008.4
20260508230004 62 202 0.0 0.0 0.00 0.00 0.00 69 1008.2
20260508223004 63 202 0.0 0.0 0.00 0.00 0.00 68 1008.2
20260508220004 64 202 0.0 0.0 0.00 0.00 0.00 64 1008.2
20260508213004 65 202 0.0 0.0 0.00 0.00 0.00 61 1008.3
20260508210003 66 202 0.0 0.0 0.00 0.00 0.00 61 1008.7
20260508204504 66 157 0.0 4.3 0.00 0.00 0.00 56 1008.8
20260508201504 66 255 0.0 2.6 0.00 0.00 0.00 51 1009.1
20260508200004 67 261 0.0 2.6 0.00 0.00 0.00 52 1009.2
20260508194503 68 253 0.9 2.6 0.00 0.00 0.00 48 1009.2
20260508193004 68 277 0.0 4.3 0.00 0.00 0.00 49 1009.4
20260508191504 70 234 1.7 5.2 0.00 0.00 0.00 46 1009.6
20260508190004 68 245 0.0 5.2 0.00 0.00 0.00 49 1009.8
20260508184504 69 251 0.9 4.3 0.00 0.00 0.00 49 1010.1
20260508183004 69 264 1.7 5.2 0.00 0.00 0.00 49 1010.4
20260508181504 67 88 0.9 2.6 0.00 0.00 0.00 54 1010.7
20260508180004 66 244 0.9 2.6 0.00 0.00 0.00 55 1011.0
20260508174504 65 252 0.0 1.7 0.00 0.00 0.00 54 1011.0
20260508171503 67 253 0.9 5.2 0.00 0.00 0.00 52 1011.6
20260508170004 67 246 1.7 4.3 0.00 0.00 0.00 52 1011.8
20260508164504 67 255 0.9 4.3 0.00 0.00 0.00 54 1012.2
20260508163004 67 244 2.6 5.2 0.00 0.00 0.00 52 1012.3
20260508161504 66 238 0.9 4.3 0.00 0.00 0.00 59 1012.4
20260508160004 65 239 0.0 6.1 0.00 0.00 0.00 60 1012.7
20260508154504 65 252 0.9 6.1 0.00 0.00 0.00 57 1012.8
20260508153004 64 224 0.9 4.3 0.00 0.00 0.00 59 1012.9
20260508151504 63 248 0.0 2.6 0.00 0.00 0.00 58 1013.0
20260508144504 62 49 0.0 2.6 0.00 0.00 0.00 58 1013.2
20260508143004 61 237 0.9 5.2 0.00 0.00 0.00 59 1013.4
20260508141503 59 233 0.9 5.2 0.00 0.00 0.00 60 1013.5
20260508140004 58 265 0.9 4.3 0.00 0.00 0.00 63 1013.5
20260508134503 56 291 0.0 1.7 0.00 0.00 0.00 66 1013.6
20260508133004 55 254 0.0 0.9 0.00 0.00 0.00 68 1013.7
20260508131504 54 229 0.0 0.0 0.00 0.00 0.00 70 1013.5
20260508130004 52 161 0.0 0.0 0.00 0.00 0.00 74 1013.5
20260508124503 51 210 0.0 0.0 0.00 0.00 0.00 74 1013.7